Simultaneous Nadir Overpasses (SNOs) Predictions

Prediction of SNOs between NOAA-15 and METOP-C Satellite Orbit:

Table of predicted SNOs for the next 14.0 days since TLE Epoch: 7/27/2025
Index Date (NOAA-15) Time (NOAA-15) Lat,Lon (NOAA-15) SZA (NOAA-15 ) Date (METOP-C) Time (METOP-C) Lat,Lon (METOP-C) SZA (METOP-C ) Distance(km) Time Diff (sec)
1 08/09/2025 18:14:54 80.97, -56.77 67.08 08/09/2025 18:13:39 80.99, -56.66 67.08 2.48 75
2 08/09/2025 19:05:19 -80.97, 110.68 112.91 08/09/2025 19:04:21 -80.98, 110.54 112.94 2.74 58
3 08/09/2025 19:55:53 80.99, -82.33 67.09 08/09/2025 19:55:01 80.98, -82.16 67.07 3.20 52
4 08/09/2025 20:46:18 -80.99, 85.12 112.90 08/09/2025 20:45:43 -80.97, 85.04 112.94 2.17 35
5 08/09/2025 21:36:51 80.99,-107.54 67.11 08/09/2025 21:36:23 80.97,-107.67 67.07 3.07 28
6 08/09/2025 22:27:15 -80.98, 59.92 112.88 08/09/2025 22:27:03 -80.98, 59.89 112.89 0.58 12
7 08/09/2025 23:17:48 80.99,-132.74 67.13 08/09/2025 23:17:43 80.98,-132.82 67.12 1.52 5
8 08/10/2025 00:08:13 -80.98, 34.71 112.86 08/10/2025 00:08:24 -80.99, 34.75 112.84 1.02 11
9 08/10/2025 00:58:46 80.98,-157.94 67.16 08/10/2025 00:59:04 80.99,-157.96 67.17 0.57 18
10 08/10/2025 01:49:12 -81.00, 9.15 112.85 08/10/2025 01:49:46 -80.98, 9.24 112.85 2.49 34
11 08/10/2025 02:39:44 80.98, 176.85 67.18 08/10/2025 02:40:25 81.00, 176.90 67.21 1.85 41



Historial Predications of SNOs between NOAA-15 and METOP-C
